{"data":{"norad_id":62455,"intl_designator":"2024-252B","name":"NUVIEW ALPHA","alt_names":[],"object_type":"PAYLOAD","status":"ACTIVE","operator":null,"country":"UK","launch_date":"2024-12-29","launch_site_code":"AFETR","launch_vehicle":null,"mission":null,"orbit_class":"UNKNOWN","rcs_meters":null,"size_class":null,"mass_kg":null,"dimensions":null,"purposes":["comms"],"wikipedia_slug":null,"has_3d_model":false,"image_url":null,"decayed_at":null,"tle_current":{"epoch":"2026-09-19T21:42:31.562208Z","epoch_age_seconds":69823,"freshness":"FRESH","line1":"1 62455U 24252B   26262.90453197 -.00000220  00000+0  00000+0 0  9996","line2":"2 62455   0.0504  11.5889 0000276 167.0031  62.7449  1.00272294  4775","mean_motion":1.00272294,"eccentricity":2.76e-5,"inclination_deg":0.0504,"raan_deg":11.5889,"arg_perigee_deg":167.0031,"mean_anomaly_deg":62.7449,"bstar":0,"rev_number":477,"period_min":1436.0896141461,"perigee_km":35785.288527953,"apogee_km":35787.616013281,"semimajor_km":42164.589270617,"source":"CELESTRAK","updated_at":"2026-09-20T09:00:35.340676Z"}}}